This is the latest recevied weather packets stored in our database for station/object NK7E. If no packets are shown the sender has not sent any weather packets the latest 10 day(s).
| Time | Temp. | Humidity | Pressure | Rain* | Wind** | Luminosity | Snow |
|---|---|---|---|---|---|---|---|
| 1777974317 | 13.89° C | 91% | 1012.6 hPa | 1.02 mm | - | 0 W/m² | - |
| 1777973717 | 13.89° C | 91% | 1012.8 hPa | 0.76 mm | - | 0 W/m² | - |
| 1777973117 | 13.89° C | 91% | 1012.9 hPa | 0.76 mm | - | 0 W/m² | - |
| 1777972517 | 14.44° C | 90% | 1012.9 hPa | 0.51 mm | - | 0 W/m² | - |
| 1777971917 | 13.89° C | 90% | 1012.9 hPa | 0.76 mm | - | 0 W/m² | - |
| 1777971317 | 14.44° C | 90% | 1013.1 hPa | 1.02 mm | - | 0 W/m² | - |
| 1777970717 | 14.44° C | 90% | 1013.5 hPa | 1.27 mm | - | 0 W/m² | - |
| 1777970117 | 14.44° C | 89% | 1014 hPa | 1.52 mm | - | 0 W/m² | - |
| 1777969517 | 14.44° C | 89% | 1014.3 hPa | 1.52 mm | - | 0 W/m² | - |
| 1777968917 | 14.44° C | 89% | 1014.4 hPa | 1.78 mm | - | 0 W/m² | - |
| 1777968317 | 14.44° C | 88% | 1014.7 hPa | 1.78 mm | - | 0 W/m² | - |
| 1777967717 | 14.44° C | 88% | 1015.1 hPa | 1.52 mm | - | 0 W/m² | - |
| 1777967117 | 14.44° C | 88% | 1015.3 hPa | 1.52 mm | - | 0 W/m² | - |
| 1777966517 | 14.44° C | 88% | 1015.3 hPa | 1.52 mm | - | 0 W/m² | - |
| 1777965917 | 14.44° C | 89% | 1015.1 hPa | 1.52 mm | - | 0 W/m² | - |
| 1777965317 | 14.44° C | 89% | 1015.2 hPa | 1.52 mm | - | 0 W/m² | - |
| 1777964717 | 14.44° C | 89% | 1015 hPa | 1.78 mm | - | 0 W/m² | - |
| 1777964116 | 14.44° C | 88% | 1014.9 hPa | 2.03 mm | - | 0 W/m² | - |
| 1777963515 | 14.44° C | 88% | 1014.8 hPa | 2.29 mm | - | 0 W/m² | - |
| 1777962915 | 14.44° C | 88% | 1014.8 hPa | 2.54 mm | - | 0 W/m² | - |
| 1777962315 | 15° C | 87% | 1014.9 hPa | 3.05 mm | - | 0 W/m² | - |
| 1777961715 | 15° C | 87% | 1015 hPa | 3.3 mm | - | 0 W/m² | - |
| 1777961115 | 15° C | 85% | 1015 hPa | 3.05 mm | - | 0 W/m² | - |
| 1777960515 | 14.44° C | 85% | 1014.8 hPa | 2.79 mm | - | 0 W/m² | - |
| 1777959915 | 15° C | 85% | 1014.8 hPa | 2.54 mm | - | 0 W/m² | - |
* Rain latest hour (hover to see other rain measurements)
** Current wind speed in m/s (hover to see current wind gust speed)